Terminal Aerodrome Forecast
Issued by NWS Hastings, NE

Home | Current Version | Previous Version | Text Only | Print | Product List | Glossary On
Versions: 1 2 3 4 5 6 7 8 9 10 11 12 13 14 15 16 17 18 19 20 21 22 23 24 25 26 27 28 29 30 31 32 33 34 35 36 37 38 39 40 41 42 43 44 45 46 47 48 49 50
000
FTUS43 KGID 200538
TAFGRI
TAF
KGRI 200538Z 2006/2106 VRB06KT 1/2SM FG OVC002
     FM200800 VRB03KT 1/4SM FG OVC002
     FM201100 VRB03KT 1/4SM FG BKN002
     FM201200 VRB03KT 1/4SM FG SCT002 SCT150
     FM201400 18006KT P6SM SCT150
     FM210000 20006KT P6SM SCT008 BKN150=

USA.gov is the U.S. government's official web portal to all federal, state and local government web resources and services.